TimeEDT,TemperatureF,Dew PointF,Humidity,Sea Level PressureIn,VisibilityMPH,Wind Direction,Wind SpeedMPH,Gust SpeedMPH,PrecipitationIn,Events,Conditions,WindDirDegrees,DateUTC
12:56 AM,66.0,59.0,78,30.04,10.0,NNE,12.7,-,N/A,,Mostly Cloudy,30,2012-10-08 04:56:00
1:32 AM,64.4,59.0,83,30.05,10.0,North,11.5,-,N/A,Thunderstorm,Thunderstorm,10,2012-10-08 05:32:00
1:56 AM,64.0,59.0,84,30.06,10.0,North,9.2,-,0.00,Rain-Thunderstorm,Light Thunderstorms and Rain,350,2012-10-08 05:56:00
2:34 AM,62.6,59.0,88,30.04,10.0,North,12.7,-,0.02,Rain,Light Rain,10,2012-10-08 06:34:00
2:56 AM,62.1,57.9,86,30.05,10.0,NNE,9.2,-,0.02,,Overcast,30,2012-10-08 06:56:00
3:02 AM,60.8,57.2,88,30.04,10.0,NE,10.4,-,N/A,,Overcast,40,2012-10-08 07:02:00
3:56 AM,61.0,57.9,90,30.04,10.0,NNE,5.8,-,N/A,,Overcast,20,2012-10-08 07:56:00
4:24 AM,60.8,57.2,88,30.04,10.0,NNE,6.9,-,0.00,Rain,Light Rain,30,2012-10-08 08:24:00
4:56 AM,60.1,57.0,90,30.06,9.0,NNE,9.2,-,0.01,Rain,Light Rain,20,2012-10-08 08:56:00
5:56 AM,60.1,57.0,90,30.04,10.0,NNE,9.2,-,0.01,,Overcast,30,2012-10-08 09:56:00
6:06 AM,60.8,57.2,88,30.05,10.0,North,8.1,-,N/A,,Overcast,10,2012-10-08 10:06:00
6:56 AM,60.1,57.0,90,30.06,10.0,NE,9.2,-,N/A,,Overcast,40,2012-10-08 10:56:00
7:56 AM,60.1,57.0,90,30.08,10.0,North,8.1,-,N/A,,Overcast,10,2012-10-08 11:56:00
8:56 AM,60.1,57.0,90,30.11,10.0,NNE,10.4,-,N/A,,Overcast,20,2012-10-08 12:56:00
9:56 AM,60.1,57.0,90,30.09,10.0,NE,9.2,-,N/A,,Overcast,40,2012-10-08 13:56:00
10:56 AM,62.1,59.0,90,30.09,10.0,NNE,10.4,-,N/A,,Overcast,20,2012-10-08 14:56:00
11:56 AM,63.0,59.0,87,30.08,10.0,NNE,9.2,-,N/A,,Overcast,20,2012-10-08 15:56:00
12:56 PM,64.9,60.1,84,30.07,10.0,North,8.1,-,N/A,,Overcast,360,2012-10-08 16:56:00
1:56 PM,64.9,59.0,81,30.04,10.0,North,5.8,-,N/A,,Overcast,10,2012-10-08 17:56:00
2:56 PM,64.9,60.1,84,30.03,10.0,NNW,10.4,-,N/A,,Overcast,340,2012-10-08 18:56:00
3:44 PM,62.6,59.0,88,30.02,10.0,NNE,11.5,-,N/A,,Overcast,20,2012-10-08 19:44:00
3:56 PM,62.1,57.9,86,30.02,10.0,NNE,11.5,-,N/A,,Overcast,20,2012-10-08 19:56:00
4:56 PM,60.1,57.0,90,30.02,10.0,NNE,11.5,19.6,N/A,,Overcast,20,2012-10-08 20:56:00
5:28 PM,57.2,57.2,100,30.05,2.0,North,12.7,-,0.04,Rain,Heavy Rain,350,2012-10-08 21:28:00
5:56 PM,57.9,55.9,93,30.03,3.0,NE,10.4,-,0.18,Rain,Heavy Rain,50,2012-10-08 21:56:00
6:01 PM,57.2,55.4,94,30.03,2.0,NNE,9.2,-,0.07,Rain,Heavy Rain,20,2012-10-08 22:01:00
6:31 PM,57.2,55.4,94,30.04,1.0,North,11.5,-,0.41,Rain,Heavy Rain,350,2012-10-08 22:31:00
6:44 PM,57.2,57.2,100,30.04,2.5,NNW,11.5,-,0.62,Rain,Heavy Rain,340,2012-10-08 22:44:00
6:56 PM,57.9,55.9,93,30.06,7.0,North,9.2,-,0.62,Rain,Light Rain,350,2012-10-08 22:56:00
7:56 PM,57.0,55.0,93,30.06,10.0,North,12.7,21.9,0.00,,Overcast,10,2012-10-08 23:56:00
8:56 PM,55.0,53.1,93,30.08,10.0,North,12.7,-,N/A,,Overcast,10,2012-10-09 00:56:00
9:56 PM,55.0,53.1,93,30.09,10.0,North,9.2,-,N/A,,Overcast,10,2012-10-09 01:56:00
10:56 PM,55.0,53.1,93,30.09,10.0,North,13.8,-,N/A,,Overcast,10,2012-10-09 02:56:00
11:56 PM,54.0,52.0,93,30.10,10.0,NNE,8.1,-,N/A,,Overcast,20,2012-10-09 03:56:00